Probability
34 35 33 30 32 38 41 41 43 48 54 57 59 58 55 50 45 42 44 48 48 46 46 46 45 44 44 41 35 30 26 26 26 24 21 16 9 5 5 4 4 5 6
38 37 37 37 39 42 42 43 47 52 59 65 67 68 63 54 46 43 44 45 44 42 42 45 43 40 39 36 31 27 24 23 23 22 22 18 12 8 5 3 4 6 7
40 39 40 44 47 47 46 47 51 57 63 68 72 72 67 58 50 45 41 38 36 33 33 36 35 31 28 27 25 22 22 20 18 18 18 15 13 10 5 2 2 4 7
35 36 38 42 45 47 49 50 51 55 59 62 65 66 62 55 50 43 35 27 23 21 21 21 20 18 16 16 16 16 17 16 14 12 9 7 8 8 5 1 1 2 4
29 29 30 32 34 40 45 47 47 47 49 52 54 54 50 44 39 32 23 16 12 11 10 9 9 8 7 7 8 9 10 10 9 7 4 3 2 3 4 2 1 1 2
23 22 21 21 23 27 32 36 37 36 35 37 39 37 34 29 23 18 12 9 6 5 5 5 4 4 4 4 4 5 5 6 6 5 4 3 2 3 3 3 1 1 1
19 18 17 15 15 17 19 21 22 21 22 23 23 21 19 16 13 9 7 6 4 3 3 3 3 3 3 3 3 3 3 4 5 4 3 3 3 3 2 2 1 0 0
14 13 12 10 9 9 10 10 9 8 10 11 11 10 8 8 7 7 6 5 4 3 3 3 3 3 3 3 3 2 2 3 3 3 2 1 1 1 1 1 0 0 0
6 5 4 3 3 4 4 3 2 2 2 3 3 3 3 3 4 4 4 3 3 2 2 2 2 1 1 2 1 1 1 1 1 1 1 0 0 0 0 0 0 0 0
1 0 0 0 0 1 1 1 0 0 0 0 0 0 1 1 1 1 1 1 1 1 1 1 1 0 0 0 0 0 0 0 0 0 0 0 0 0 0 0 0 0 0
0 0 0 0 0 0 0 0 0 0 0 0 0 0 0 0 0 0 0 0 0 0 0 0 0 0 0 0 0 0 0 0 0 0 0 0 0 0 0 0 0 0 0
0 0 0 0 0 0 0 0 0 0 0 0 0 0 0 0 0 0 0 0 0 0 0 0 0 0 0 0 0 0 0 0 0 0 0 0 0 0 0 0 0 0 0
0 0 0 0 0 0 0 0 0 0 0 0 0 0 0 0 0 0 0 0 0 0 0 0 0 0 0 0 0 0 0 0 0 0 0 0 0 0 0 0 0 0 0
0 0 0 0 0 0 0 0 0 0 0 0 0 0 0 0 0 0 0 0 0 0 0 0 0 0 0 0 0 0 0 0 0 0 0 0 0 0 0 0 0 0 0
0 0 0 0 0 0 0 0 0 0 0 0 0 0 0 0 0 0 0 0 0 0 0 0 0 0 0 0 0 0 0 0 0 0 0 0 0 0 0 0 0 0 0
0 0 0 0 0 0 0 0 0 0 0 0 0 0 0 0 0 0 0 0 0 0 0 0 0 0 0 0 0 0 0 0 0 0 0 0 0 0 0 0 0 0 0
0 0 0 0 0 0 0 0 0 0 0 0 0 0 0 0 0 0 0 0 0 0 0 0 0 0 0 0 0 0 0 0 0 0 0 0 0 0 0 0 0 0 0
0 0 0 0 0 0 0 0 0 0 0 0 0 0 0 0 0 0 0 0 0 0 0 0 0 0 0 0 0 0 0 0 0 0 0 0 0 0 0 0 0 0 0
0 0 0 0 0 0 0 0 0 0 0 0 0 0 0 0 0 0 0 0 0 0 0 0 0 0 0 0 0 0 0 0 0 0 0 0 0 0 0 0 0 0 0
0 0 0 0 0 0 0 0 0 0 0 0 0 0 0 0 0 0 0 0 0 0 0 0 0 0 0 0 0 0 0 0 0 0 0 0 0 0 0 0 0 0 0
0 0 0 0 0 0 0 0 0 0 0 0 0 0 0 0 0 0 0 0 0 0 0 0 0 0 0 0 0 0 0 0 0 0 0 0 0 0 0 0 0 0 0
0 0 0 0 0 0 0 0 0 0 0 0 0 0 0 0 0 0 0 0 0 0 0 0 0 0 0 0 0 0 0 0 0 0 0 0 0 0 0 0 0 0 0
0 0 0 0 0 0 0 0 0 0 0 0 0 0 0 0 0 0 0 0 0 0 0 0 0 0 0 0 0 0 0 0 0 0 0 0 0 0 0 0 0 0 0
0 0 0 0 0 0 0 0 0 0 0 0 0 0 0 0 0 0 0 0 0 0 0 0 0 0 0 0 0 0 0 0 0 0 0 0 0 0 0 0 0 0 0
0 0 0 0 0 0 0 0 0 0 0 0 0 0 0 0 0 0 0 0 0 0 0 0 0 0 0 0 0 0 0 0 0 0 0 0 0 0 0 0 0 0 0
0 0 0 0 0 0 0 0 0 0 0 0 0 0 0 0 0 0 0 0 0 0 0 0 0 0 0 0 0 0 0 0 0 0 0 0 0 0 0 0 0 0 0
Wind_Speed
7 6 4 3 3 3 5 6 7 8 7 7 8 8 7 5 4 3 4 4 4 5 5 4 3 3 3 3 3 3 3 2 2 4 4 4 3 2 1 1 1 1 0
8 7 6 5 4 3 2 3 5 6 7 6 6 5 5 4 3 2 2 1 2 2 3 4 3 3 3 2 2 2 3 2 2 3 3 3 4 3 1 1 1 0 1
8 8 8 7 6 4 3 1 1 2 4 5 5 5 4 4 4 3 2 2 2 1 0 1 1 1 1 2 2 2 4 3 2 2 3 3 3 2 3 1 1 1 1
9 9 9 9 8 7 5 4 3 2 1 3 6 7 6 5 3 3 4 5 5 5 4 4 4 3 2 1 1 0 1 2 2 1 1 2 3 2 1 2 1 1 1
10 10 10 10 10 9 7 7 6 6 4 3 4 5 4 3 4 6 7 6 6 7 7 6 5 5 3 3 3 3 3 2 1 0 0 1 1 2 2 1 1 1 0
10 11 11 11 11 11 10 9 9 9 7 6 5 5 6 7 8 7 7 6 6 7 9 9 7 7 6 6 6 6 7 5 5 3 2 2 2 2 2 2 2 1 0
10 10 11 11 12 12 12 11 12 11 10 9 9 8 9 9 9 8 8 7 6 7 8 8 8 7 7 8 7 8 8 7 6 5 4 3 3 3 3 2 2 3 2
10 11 12 12 12 13 13 13 14 14 14 13 13 12 12 9 8 10 8 8 7 8 9 9 9 10 9 9 7 7 7 6 6 6 5 3 4 4 3 3 3 4 4
10 11 11 12 12 13 13 13 14 15 15 15 15 15 14 13 13 12 11 9 8 8 11 11 11 10 10 9 7 7 7 6 6 5 5 4 3 3 4 4 4 5 6
10 10 10 11 12 12 13 14 15 15 15 14 13 13 14 14 13 12 13 12 11 10 11 11 10 10 9 9 7 7 7 6 6 5 6 5 4 4 4 4 4 4 5
10 10 10 11 12 12 13 13 14 14 14 14 14 14 13 13 13 12 12 11 11 10 10 10 10 9 9 8 7 7 7 7 6 5 5 5 5 4 4 4 4 4 4
10 10 10 11 12 12 12 13 13 13 13 13 13 13 13 13 13 13 12 11 11 10 10 9 9 9 9 8 8 7 7 7 6 6 5 5 4 5 4 4 5 4 5
11 10 10 11 11 12 12 12 12 12 12 12 13 13 12 13 12 12 11 10 10 9 9 9 9 9 9 8 8 7 7 7 7 6 6 6 6 5 5 5 5 5 5
10 10 10 10 10 10 11 11 11 11 11 11 12 12 12 11 11 11 10 10 9 9 8 8 8 8 9 9 8 7 7 7 6 6 6 6 6 7 7 6 6 6 7
11 11 11 10 10 10 10 10 10 10 10 11 12 11 11 10 10 10 9 8 8 8 7 7 7 7 7 9 10 8 7 7 6 6 6 6 6 7 7 8 9 9 8
12 12 11 11 10 9 9 9 10 9 9 11 11 10 10 9 9 8 8 7 7 7 6 7 7 7 8 8 10 11 8 7 7 6 6 4 2 4 5 6 8 10 10
12 11 11 10 9 8 8 9 9 9 9 9 9 9 8 8 8 7 7 7 6 5 6 6 6 7 9 8 8 11 9 6 6 7 6 6 5 6 8 7 8 9 9
11 11 10 10 9 9 8 8 8 9 9 9 8 8 7 8 7 6 6 6 5 5 5 5 6 6 8 7 8 13 8 5 6 6 6 6 7 8 10 11 10 9 5
10 10 9 10 9 9 8 8 8 8 8 8 7 7 6 6 6 6 5 5 4 5 4 5 5 5 6 8 9 13 7 5 5 5 5 6 7 8 10 11 10 9 7
10 10 9 9 8 8 7 8 8 8 8 7 6 6 5 5 5 5 5 4 4 4 4 5 5 5 6 7 8 13 7 6 6 5 3 3 5 9 10 10 9 9 9
11 10 10 8 8 7 7 7 7 7 7 6 5 5 4 4 4 4 4 4 4 4 4 4 4 4 5 4 5 9 8 8 7 6 5 5 6 9 10 10 8 8 11
11 10 9 8 7 6 6 7 7 6 5 4 4 4 3 3 4 3 3 3 3 2 3 3 3 3 3 4 4 5 6 8 8 6 6 7 10 12 12 8 7 10 11
10 9 9 9 7 6 5 7 6 4 4 3 3 3 3 3 3 2 2 2 2 3 4 4 4 4 4 2 2 5 7 7 7 6 7 9 11 11 7 4 8 9 6
10 9 9 9 7 6 6 5 4 3 2 3 2 2 2 3 3 2 2 3 4 5 4 5 5 5 4 6 7 7 5 4 5 6 5 7 9 8 5 5 4 4 5
8 8 8 8 8 6 5 4 3 2 1 2 1 1 2 3 2 3 4 5 7 7 6 6 6 6 6 8 10 9 8 9 9 10 6 5 5 5 6 5 5 5 5
8 8 7 7 6 5 4 3 2 1 1 1 1 1 1 2 1 2 4 5 4 3 1 3 6 4 5 8 9 9 9 10 11 9 5 6 6 6 7 7 6 6 6
Wind_Direction
71 64 67 81 111 139 168 182 193 192 194 195 196 192 191 190 196 207 208 212 220 215 213 226 208 219 227 240 245 245 236 237 245 244 240 226 222 215 234 254 262 199 259
67 56 51 54 60 84 112 173 193 194 199 199 197 192 184 174 181 192 175 195 213 218 209 213 206 204 195 193 213 228 248 231 236 257 253 235 204 195 187 194 197 206 184
59 54 46 40 40 41 43 44 190 185 196 190 185 170 168 180 178 169 135 85 80 95 156 185 151 138 160 181 200 216 232 225 209 272 272 260 248 188 163 147 99 55 32
58 53 46 38 34 32 37 42 51 75 131 175 179 176 179 186 173 135 109 87 75 75 71 70 73 76 76 98 145 152 235 233 203 162 332 335 345 289 201 164 121 67 29
54 52 47 40 36 33 39 49 57 58 66 99 146 161 160 133 106 103 101 92 77 70 72 72 72 69 64 64 59 60 47 29 17 69 40 13 9 323 290 254 200 184 67
58 54 50 47 43 41 44 48 55 55 59 68 84 114 119 119 112 103 95 84 74 66 65 69 70 70 66 65 65 61 61 52 47 36 31 13 4 340 321 290 282 279 291
61 56 52 49 46 45 46 51 57 57 58 65 69 78 88 93 98 98 94 91 83 71 63 66 65 67 65 63 62 63 59 57 54 43 30 26 20 353 333 317 311 299 270
62 58 53 52 51 50 50 54 57 57 57 61 62 64 71 77 80 84 88 83 78 75 73 70 66 63 60 60 60 62 60 58 57 51 32 14 22 5 359 343 318 292 265
69 63 59 57 57 55 54 59 63 63 61 64 68 68 68 72 77 78 77 76 78 80 76 72 67 62 59 54 53 58 52 49 42 42 37 23 27 7 1 348 333 317 309
79 71 67 66 65 64 64 63 66 66 66 65 67 72 72 75 77 78 79 79 76 76 76 73 70 64 59 53 49 54 49 49 48 37 33 14 12 7 351 345 336 327 316
92 84 79 75 73 71 70 70 70 71 71 72 73 74 75 76 78 78 78 79 78 76 75 73 72 68 62 56 53 52 49 48 45 31 28 21 5 352 343 339 332 328 319
99 94 88 83 78 74 73 73 73 75 75 77 77 77 78 79 80 80 80 80 79 78 77 76 73 70 66 58 51 47 42 39 35 27 15 6 360 351 338 337 330 328 327
106 99 92 86 82 80 78 77 77 80 81 82 81 80 80 80 80 81 81 80 80 78 77 73 69 65 61 56 48 41 37 32 26 17 7 0 353 347 350 330 329 326 320
114 107 99 93 89 87 85 84 82 83 86 86 86 84 84 85 87 87 85 82 80 77 71 68 64 59 52 43 34 31 31 24 20 12 1 357 355 355 344 330 333 328 318
121 116 110 105 99 94 92 90 89 88 90 90 88 87 87 87 86 84 82 80 76 73 68 65 61 55 53 34 14 7 19 14 9 6 1 12 10 1 341 334 334 326 318
126 120 114 110 104 101 99 96 93 92 92 92 91 91 91 89 87 85 82 77 71 64 59 52 49 47 51 36 11 351 358 1 359 356 352 347 342 0 304 301 306 308 307
125 121 117 111 107 103 101 98 98 98 97 96 96 95 92 88 86 84 80 73 68 63 57 48 44 52 61 32 8 351 333 350 357 349 342 338 2 326 339 320 283 269 251
120 119 117 114 111 109 107 106 108 107 103 100 97 94 91 88 84 79 72 62 55 50 46 41 37 46 62 32 2 335 312 347 349 344 341 336 339 12 347 325 317 317 312
115 116 117 117 118 118 118 115 112 109 104 98 94 89 86 85 79 70 63 53 46 43 41 43 33 36 64 38 3 337 323 350 348 345 351 343 348 26 339 315 316 321 325
114 116 116 117 118 122 124 119 114 107 98 93 89 86 80 73 68 63 54 52 44 38 34 44 35 29 40 54 10 341 329 351 344 345 0 82 359 344 325 316 320 326 332
122 124 123 121 122 127 124 114 108 99 93 93 89 83 77 76 71 64 55 43 39 39 33 36 43 46 34 66 38 351 339 346 336 340 348 27 8 331 318 304 309 324 314
125 127 126 124 126 128 126 116 105 100 100 98 91 80 69 61 75 72 59 38 16 34 44 36 33 54 69 37 28 332 316 313 317 331 347 1 343 321 308 306 324 307 294
129 132 130 127 126 126 123 114 111 111 107 97 81 74 75 67 60 58 56 38 20 15 23 21 28 32 27 71 239 279 280 280 301 334 332 311 303 300 290 262 286 291 302
135 137 136 129 122 118 115 113 114 110 101 82 69 75 85 90 83 38 27 20 19 19 20 19 20 19 19 18 5 344 334 312 308 327 308 271 267 273 309 311 306 324 348
133 134 130 126 123 121 117 113 105 98 86 77 69 62 78 79 96 75 38 19 45 28 360 8 8 9 11 15 345 328 339 341 343 325 320 349 2 4 8 2 1 356 356
133 132 130 127 125 128 124 113 106 85 31 55 59 60 74 82 95 116 123 79 48 89 32 357 342 5 20 340 327 323 316 309 309 312 353 7 6 3 0 358 358 359 360